ONEWEB-0127 (47273 NORAD) Tracking and Keplerian Element Data

This shows tracking and keplerian element data for the satellite.

Feedback or suggestion? Click here.




ElementValue
Catalog47273
NameONEWEB-0127
Epoch Orbit515
Epoch Day21.16668981
Epoch Year2021
RAAN27.8369
Inclination87.4561
Eccentricity0.0012899
Argument of Perigee143.7366
Mean Anonmoly25.4928
Mean Motion15.07421931
Decay Rate-0.01464881
L11 47273U 20100R 21021.16668981 -.01464881 00000-0 -10571+0 0 9994
L22 47273 87.4561 27.8369 0012899 143.7366 25.4928 15.07421931 5154

Live tracking and technical data element details for ONEWEB-0127 (NORAD 47273). ONEWEB-0127 can be tracked NOW for your location showing map with azimuth and elevation plus other details from your city location.

Track the satellite on the map from your city or location and see movement details for azimuth, elevation, latitude, longitude, range, height, and movement on the map or in text.







IsCatalogInMostPopularTable: catalog: 47273, numindb: 15
Update: records affected: 1



GetName: 47273 ONEWEB-0127

Hit Count: updated at: Sat, 23 Jan 2021 18:08:20 GMT